Regional Weather Roundup
Issued by NWS

Home | Current Version | Previous Version | Text Only | Print | Product List | Glossary Off
Versions: 1 2 3 4 5 6 7 8 9 10 11 12 13 14 15 16 17 18 19 20 21 22 23 24 25 26 27 28 29 30 31 32 33 34 35 36 37 38 39 40 41 42 43 44 45 46 47 48 49 50

000
ASUS43 KMPX 220710
RWRMN
WEATHER ROUNDUP FOR MINNESOTA
NATIONAL WEATHER SERVICE TWIN CITIES/CHANHASSEN MN
100 AM CST MON DEC 22 2014


NOTE: "FAIR" INDICATES FEW OR NO CLOUDS BELOW 12,000 FEET WITH NO
SIGNIFICANT WEATHER AND/OR OBSTRUCTIONS TO VISIBILITY. N/A MEANS
CURRENT SKY AND/OR WEATHER CONDITIONS ARE NOT AVAILABLE.

MNZ060>063-068>070-220800-
   Twin Cities Metro

CITY           SKY/WX    TMP DP  RH WIND       PRES   REMARKS
TWIN CITIES    CLOUDY    38  36  92 SE12      29.71F FOG
ST PAUL        CLOUDY    38  37  97 S15       29.73F FOG
CRYSTAL        CLOUDY    39  37  92 SE10      29.68F FOG
BLAINE         CLOUDY    39  39 100 S13G18    29.70F FOG
LAKEVILLE      CLOUDY    36  36 100 S8        29.71S FOG
EDEN PRAIRIE   CLOUDY    38  37  97 S15       29.68F FOG
SOUTH ST PAUL  CLOUDY    39  37  94 S9        29.72S
LAKE ELMO      CLOUDY    37  37 100 S12       29.73F
$$
MNZ001>005-007-008-013>017-022>024-027-028-220800-
   Northwest Minnesota

CITY           SKY/WX    TMP DP  RH WIND       PRES   REMARKS
BEMIDJI        CLOUDY    33  32  99 SE8       29.60S FOG     WCI  26
HALLOCK        CLOUDY    34  32  93 CALM      29.57F
ROSEAU         CLOUDY    34  30  86 SE8       29.60F WCI  27
WARROAD        CLOUDY    34  28  80 SE7       29.62S WCI  28
THIEF RVR FALL CLOUDY    34  32  93 SE9       29.57F WCI  26
CROOKSTON      MOCLDY    36  34  93 SE12      29.57S
FOSSTON        CLOUDY    34  30  86 SE9       29.57F WCI  26
DETROIT LAKES  CLOUDY    34  34 100 SE10      29.55F FOG     WCI  26
MOORHEAD       CLOUDY    36  36 100 SE7       29.54F FOG
PARK RAPIDS    CLOUDY    35  34  96 SE12      29.58F FOG     WCI  27
MAHNOMEN       CLOUDY    34  33  94 SE9       29.55F WCI  27
$$
MNZ006-009>011-018-025>026-220800-
   North Central Minnesota

CITY           SKY/WX    TMP DP  RH WIND       PRES   REMARKS
BAUDETTE       CLOUDY    33  31  92 SE5       29.62F WCI  29
FLAG ISLAND    CLOUDY    34  30  86 SE12      29.62S WCI  25
INTL FALLS     CLOUDY    33  31  92 SE7       29.66F FOG     WCI  27
WASKISH        CLOUDY    34  32  93 CALM      29.63R
BIG FORK       CLOUDY    34  32  93 SE5       29.65S FOG     WCI  30
LONGVILLE      CLOUDY    34  34 100 SE7       29.63S FOG     WCI  28
GRAND RAPIDS   CLOUDY    34  32  93 SE8       29.65S WCI  27
CRANE LAKE     CLOUDY    32  30  93 CALM      29.71S FOG
ORR            CLOUDY    32  30  93 SE5       29.65S FOG     WCI  27
COOK           CLOUDY    34  32  93 SE5       29.68S FOG     WCI  30
WALKER         CLOUDY    33  33  99 SE8       29.61S FOG     WCI  26
$$
MNZ012-019>021-037-220800-
   Northeast Minnesota

CITY           SKY/WX    TMP DP  RH WIND       PRES   REMARKS
DULUTH         FOG       34  33  96 S10       29.70S VSB 1/4 WCI  26
ELY            CLOUDY    34  32  93 SE8       29.70F FOG     WCI  27
HIBBING        CLOUDY    34  32  92 SE8       29.67F FOG     WCI  27
EVELETH        CLOUDY    32  32 100 SE6       29.70F FOG     WCI  26
DULUTH HARBOR  CLOUDY    36  34  93 CALM      29.75S
TWO HARBORS    CLOUDY    37  32  81 S5        29.72F
SILVER BAY     CLOUDY    36  34  93 CALM      29.73S FOG
GRAND MARAIS     N/A     38  34  85 S13       29.79S
G MARAIS ARPRT MIX PCPN  30  28  93 S6        29.75S VSB<1/4 WCI  24
$$
MNZ029>031-032-039>041-046>048-054>057-064-220800-
   West Central Minnesota

CITY           SKY/WX    TMP DP  RH WIND       PRES   REMARKS
FERGUS FALLS   CLOUDY    36  36 100 SE14G20   29.57S FOG
WHEATON        CLOUDY    34  32  93 SE12      29.54F FOG     WCI  25
MORRIS         CLOUDY    36  36 100 SE20      29.53F FOG
ALEXANDRIA     CLOUDY    35  34  96 SE15      29.57F FOG     WCI  25
ELBOW LAKE     CLOUDY    35  35  99 SE14      29.54F FOG     WCI  26
WADENA         CLOUDY    34  34 100 SE12      29.57F FOG     WCI  25
GLENWOOD       CLOUDY    36  36 100 SE15      29.58F FOG
APPLETON       CLOUDY    37  36  93 SE12      29.55S FOG
BENSON         CLOUDY    36  36 100 S15G21    29.56F FOG
ORTONVILLE     CLOUDY    36  34  93 SE14      29.52S
MADISON        PTCLDY    39  37  93 SE14      29.53F
WILLMAR        CLOUDY    36  36 100 SE14      29.61F FOG
$$
MNZ033>034-036-042>043-049>051-058-059-220800-
   Central Minnesota

CITY           SKY/WX    TMP DP  RH WIND       PRES   REMARKS
ST CLOUD       CLOUDY    38  35  89 SE13      29.65F FOG
SAUK CENTRE    CLOUDY    34  34  99 SE12      29.61F FOG     WCI  26
PAYNESVILLE    DRIZZLE   33  33 100 E12       29.62F WCI  24
AITKIN         CLOUDY    37  32  81 SE7       29.64F HAZE
PINE RIVER     CLOUDY    34  34 100 SE9       29.66F FOG     WCI  26
BRAINERD       CLOUDY    35  34  96 SE8       29.64F FOG     WCI  29
STAPLES        CLOUDY    34  34 100 SE6       29.60F FOG     WCI  29
LONG PRAIRIE   CLOUDY    34  34 100 SE13      29.61F FOG     WCI  25
LITTLE FALLS   MIX PCPN  34  34 100 SE8       29.64F WCI  27
LITCHFIELD     CLOUDY    37  37 100 SE9       29.64S FOG
BUFFALO        CLOUDY    38  36  93 SE9       29.67F FOG
MAPLE LAKE     CLOUDY    38  37  99 SE8       29.67F FOG
$$
MNZ037-044-045-052-053-220800-
   East Central Minnesota

CITY           SKY/WX    TMP DP  RH WIND       PRES   REMARKS
PRINCETON      CLOUDY    37  37 100 SE8       29.68F FOG
MORA           CLOUDY    34  34 100 SE6       29.71S WCI  29
CAMBRIDGE      CLOUDY    37  32  81 SE6       29.68S HAZE
RUSH CITY      CLOUDY    36  35  96 SE8       29.71S FOG
MOOSE LAKE     LGT RAIN  34  32  93 SE3       29.68F
HINCKLEY       CLOUDY    36  36 100 CALM      29.71S FOG
CLOQUET        LGT RAIN  34  34 100 S5        29.70S WCI  30
MCGREGOR       CLOUDY    34  34 100 SE7       29.68S WCI  28
$$
MNZ071>073-080-081-089-090-097-098-220800-
   Southwest Minnesota

CITY           SKY/WX    TMP DP  RH WIND       PRES   REMARKS
MONTEVIDEO     CLOUDY    36  36 100 S12       29.57F FOG
GRANITE FALLS  CLOUDY    37  35  96 SE10      29.58F
CANBY          CLOUDY    39  37  92 S12G18    29.53F
MARSHALL       CLOUDY    39  34  81 S15G21    29.55F
REDWOOD FALLS  CLOUDY    38  36  92 SE20      29.59F
OLIVIA         CLOUDY    36  36 100 SE13G18   29.60F FOG
PIPESTONE      CLOUDY    37  37 100 S16       29.53F FOG
WINDOM         CLOUDY    37  37 100 SE14      29.60F FOG
WORTHINGTON    CLOUDY    39 -11  11 S15G22    29.58F
JACKSON        CLOUDY    37  36  93 S14G21    29.62F FOG
TRACY          CLOUDY    39  37  93 S14G22    29.56F
SLAYTON        CLOUDY    37  37 100 S14       29.57F FOG
$$
MNZ065>067-074>077-082>085-091>093-220800-
   South Central Minnesota

CITY           SKY/WX    TMP DP  RH WIND       PRES   REMARKS
MANKATO        CLOUDY    39  36  87 S17       29.67F
NEW ULM        CLOUDY    37  37 100 S15       29.63F FOG
ST JAMES       CLOUDY    39  37  93 SE14      29.65F FOG
FAIRMONT       CLOUDY    37  36  93 SE17      29.65F
GLENCOE        CLOUDY    38  38  99 SE10      29.65F FOG
FARIBAULT      CLOUDY    39  37  93 SE17G23   29.70F FOG
OWATONNA       DRIZZLE   37  36  93 SE15      29.71F
WASECA         CLOUDY    36  36 100 SE13      29.71F FOG
ALBERT LEA     DRIZZLE   37  37 100 S13       29.70F
$$
MNZ078>079-086>088-094>096-220800-
   Southeast Minnesota

CITY           SKY/WX    TMP DP  RH WIND       PRES   REMARKS
ROCHESTER      CLOUDY    35  34  96 S18       29.75F FOG     WCI  24
RED WING       CLOUDY    37  36  93 S15G23    29.75F FOG
STANTON        CLOUDY    39  37  90 S14G23    29.71F FOG
DODGE CENTER   FOG       37  37 100 S15       29.73S VSB 1
WINONA         CLOUDY    37  36  93 S6        29.81F FOG
AUSTIN         LGT RAIN  36  36 100 S10G16    29.73F
PRESTON        CLOUDY    34  33  96 S15       29.78S FOG     WCI  24
$$
ABBREVIATIONS USED IN REMARKS
   TC - TEMPERATURES IN CELSIUS
  WCI - WIND CHILL INDEX
   HX - HEAT INDEX
  VSB - VISIBILITY
$$



USA.gov is the U.S. government's official web portal to all federal, state and local government web resources and services.